TimeCDT,TemperatureF,Dew PointF,Humidity,Sea Level PressureIn,VisibilityMPH,Wind Direction,Wind SpeedMPH,Gust SpeedMPH,PrecipitationIn,Events,Conditions,WindDirDegrees,DateUTC
12:54 AM,34.0,28.0,79,29.90,10.0,SE,5.8,-,N/A,,Clear,130,2011-10-31 05:54:00
1:54 AM,32.0,27.0,82,29.89,10.0,SE,4.6,-,N/A,,Clear,130,2011-10-31 06:54:00
2:54 AM,33.1,28.0,82,29.86,10.0,ESE,4.6,-,N/A,,Clear,120,2011-10-31 07:54:00
3:54 AM,34.0,28.0,79,29.83,10.0,Calm,Calm,-,N/A,,Clear,0,2011-10-31 08:54:00
4:54 AM,33.8,26.6,75,29.75,10.0,SE,5.8,-,N/A,,Clear,140,2011-10-31 09:54:00
5:54 AM,36.0,27.0,70,29.76,10.0,South,6.9,-,N/A,,Clear,170,2011-10-31 10:54:00
6:54 AM,39.9,27.0,60,29.73,10.0,South,15.0,20.7,N/A,,Clear,170,2011-10-31 11:54:00
7:54 AM,39.9,27.0,60,29.72,10.0,SSW,13.8,-,N/A,,Clear,200,2011-10-31 12:54:00
8:54 AM,39.0,28.0,65,29.71,10.0,SSW,11.5,-,N/A,,Clear,200,2011-10-31 13:54:00
9:54 AM,42.1,28.9,60,29.71,10.0,SSW,16.1,-,N/A,,Clear,210,2011-10-31 14:54:00
10:54 AM,48.0,32.0,54,29.70,10.0,SW,12.7,-,N/A,,Clear,220,2011-10-31 15:54:00
11:54 AM,55.0,34.0,45,29.68,10.0,SW,13.8,-,N/A,,Clear,230,2011-10-31 16:54:00
12:54 PM,57.0,36.0,45,29.68,10.0,SW,10.4,-,N/A,,Clear,220,2011-10-31 17:54:00
1:54 PM,60.1,37.9,44,29.65,10.0,WSW,9.2,-,N/A,,Clear,240,2011-10-31 18:54:00
2:54 PM,61.0,37.9,42,29.64,10.0,WSW,11.5,-,N/A,,Partly Cloudy,240,2011-10-31 19:54:00
3:54 PM,62.1,39.0,43,29.66,10.0,WSW,17.3,26.5,N/A,,Mostly Cloudy,240,2011-10-31 20:54:00
4:54 PM,60.1,39.0,46,29.66,10.0,West,18.4,28.8,0.00,,Overcast,260,2011-10-31 21:54:00
5:54 PM,57.9,39.9,51,29.69,10.0,West,19.6,-,N/A,,Scattered Clouds,260,2011-10-31 22:54:00
6:54 PM,53.1,41.0,64,29.69,10.0,West,10.4,-,N/A,,Partly Cloudy,270,2011-10-31 23:54:00
7:54 PM,50.0,39.9,68,29.75,10.0,West,11.5,-,N/A,,Clear,280,2011-11-01 00:54:00
8:54 PM,48.9,37.0,64,29.76,10.0,West,11.5,-,N/A,,Clear,280,2011-11-01 01:54:00
9:54 PM,46.0,35.1,66,29.79,10.0,West,11.5,-,N/A,,Scattered Clouds,280,2011-11-01 02:54:00
10:54 PM,44.1,33.1,65,29.83,10.0,WNW,18.4,-,N/A,,Clear,290,2011-11-01 03:54:00
11:54 PM,41.0,35.1,79,29.87,10.0,WNW,16.1,-,N/A,,Clear,300,2011-11-01 04:54:00